User: anonymous   Login
Location: Banksville Park
(38.5557°N, 75.1182°W)
Time: 23:21:05
(UTC+00:00)
Language:

Okean 1 - Orbit

View from above orbital plane
View from above orbital plane
View from above satellite
View from above satellite

Ground track
Ground track

The orbit data is extracted from the following two-line orbital elements,

1 19274U 88056A   20332.62080943  .00000373  00000-0  23207-4 0  9993
2 19274  82.5044   5.8533 0011223 348.2102  11.8861 15.06536832764529
Epoch (UTC): 27 November 2020 14:53:57
Eccentricity: 0.0011223
inclination: 82.5044°
perigee height: 539 km
apogee height: 554 km
right ascension of ascending node: 5.8533°
argument of perigee: 348.2102°
revolutions per day: 15.06536832
mean anomaly at epoch: 11.8861°
orbit number at epoch: 76452

The dashed part of the orbit path shows where the satellite is in the earth's shadow,  

DLR